Terug naar catalogus

ONEWEB-0318

ActiefCommunicatiePO
NORAD 49104·PAYLOAD·🇬🇧 United Kingdom

Gelanceerd Aug 21, 2021 vanaf Baikonur Cosmodrome

Loading…

Volgende Passages (komende 24 uur)

TLE

VersSource: CelesTrak SupGP

Epoch: Sep 14, 2026, 17:07 UTC

1 49104C 21075AF  26257.71338380 -.00000383  00000+0 -97203-3 0  2574
2 49104  87.9171 317.6725 0002032 103.7469   8.4845 13.18691638    17

Volg ONEWEB-0318 in realtime met AllMySat

Download on the App Store